User: anonymous   Login
Location: Zagreb
(45.8000°N, 16.0000°E)
Time: 00:47:54
(UTC+01:00)
Language:

Vanguard 1 - Orbit

View from above orbital plane
View from above orbital plane
View from above satellite
View from above satellite

Ground track
Ground track

The orbit data is extracted from the following two-line orbital elements,

1     5U 58002B   20025.16651278 +.00000208 +00000-0 +29097-3 0  9995
2     5 034.2468 312.8291 1845757 063.0346 314.6657 10.84804684189585
Epoch (UTC): 25 January 2020 03:59:46
Eccentricity: 0.1845757
inclination: 34.2468°
perigee height: 651 km
apogee height: 3833 km
right ascension of ascending node: 312.8291°
argument of perigee: 63.0346°
revolutions per day: 10.84804684
mean anomaly at epoch: 314.6657°
orbit number at epoch: 18958

The dashed part of the orbit path shows where the satellite is in the earth's shadow,  

DLR